Вернуться в каталог

STARLINK-1661

АктивенСвязьVLEO
NORAD 46355·PAYLOAD·🇺🇸 United States

Запущен Sep 3, 2020 с Cape Canaveral Space Force Station

Loading…

Ближайшие Пролёты (ближайшие 24 часа)

TLE

СвежийSource: CelesTrak SupGP

Эпоха: Sep 14, 2026, 13:14 UTC

1 46355C 20062AH  26257.55187500  .00028998  00000+0  55109-3 0  2571
2 46355  53.1493 202.2173 0003854  99.6258 273.5602 15.47644735    18

Отслеживайте STARLINK-1661 в реальном времени с AllMySat

Download on the App Store